Regional Weather Roundup
Issued by NWS Charleston, SC

Current Version | Previous Version | Graphics & Text | Print | Product List | Glossary On
Versions: 1 2 3 4 5 6 7 8 9 10 11 12 13 14 15 16 17 18 19 20 21 22 23 24 25 26 27 28 29 30 31 32 33 34 35 36 37 38 39 40 41 42 43 44 45 46 47 48 49 50
709
ASUS42 KCHS 150627
RWRCHS

Regional Weather Roundup
National Weather Service Charleston SC
100 AM EST FRI DEC 15 2017

NOTE: "fair" indicates few or no clouds below 12,000 feet with no
significant weather and/or obstructions to visibility.

Not all stations are quality controlled. Use data with caution,
especially dewpoint observations.

SCZ027-030-031-034>040-042>050-150700-
...Southeast South Carolina...

CITY           SKY/WX    TMP DP  RH WIND       PRES   REMARKS
N Charleston   CLOUDY    47  42  83 SW5       30.00F
6HR MIN TEMP:  45; 6HR MAX TEMP:  51;

Waterfront Prk   N/A     52  44  74 VRB2      29.86F
Mount Pleasant FAIR      46  43  87 CALM      30.00S
Johns Island   FAIR      52  43  71 SW5       30.01R
Pinopolis        N/A     50  41  71 SW6       29.92F
Moncks Corner  FAIR      43  39  87 CALM      30.00S
Summerville    FAIR      43  41  93 CALM      30.01F
Beaufort MCAS  CLOUDY    49  44  83 S6        30.01S
6HR MIN TEMP:  47; 6HR MAX TEMP:  50;

Beaufort Arpt  FAIR      50  43  76 SW3       30.00F
Hilton Head Is CLOUDY    52  39  62 VRB5      30.02S
Walterboro     PTCLDY    43  41  93 CALM      30.02S
Allendale      FAIR      45  41  87 CALM      29.99S

...Southern Midlands and Pee Dee...

CITY           SKY/WX    TMP DP  RH WIND       PRES   REMARKS
Georgetown     FAIR      41  41 100 CALM      30.01S
Kingstree      FAIR      41  39  93 CALM      29.98F
Orangeburg     MOCLDY    46  37  71 CALM      29.99F
6HR MIN TEMP:  42; 6HR MAX TEMP:  48;

Barnwell         N/A     46  39  76 CALM      29.99S
Aiken          FAIR      43  36  75 W5        30.01S
Manning        FAIR      43  30  61 MISG      29.99F
Columbia       MOCLDY    47  38  71 CALM      29.97F
6HR MIN TEMP:  42; 6HR MAX TEMP:  51;

Sumter         CLOUDY    44  36  73 CALM      29.95F
6HR MIN TEMP:  43; 6HR MAX TEMP:  47;

Florence       PTCLDY    42  36  79 CALM      29.99S
6HR MIN TEMP:  38; 6HR MAX TEMP:  44;

Myrtle Beach   MOCLDY    47  41  80 SW3       30.01S
N Myrtle Beach CLOUDY    44  42  93 CALM      29.99F
6HR MIN TEMP:  42; 6HR MAX TEMP:  47;


$$

GAZ063-065-086>088-099>101-113>116-118-119-134>141-150-150700-
...Southeast Georgia...

CITY           SKY/WX    TMP DP  RH WIND       PRES   REMARKS
Savannah Arpt  PTCLDY    48  39  71 W6        30.02F
6HR MIN TEMP:  47; 6HR MAX TEMP:  54;

Hunter AAF     CLOUDY    46  39  76 SW7       30.00S
Fort Stewart   CLOUDY    44  39  83 CALM      30.00F
6HR MIN TEMP:  42; 6HR MAX TEMP:  50;

Statesboro     CLOUDY    46  39  78 CALM      30.02R
Sylvania       CLOUDY    46  44  91 CALM      30.02S
Claxton        FAIR      46  44  93 CALM      30.02S

...CSRA, Central and far Southeast Georgia...

CITY           SKY/WX    TMP DP  RH WIND       PRES   REMARKS
Thomson        PTCLDY    42  38  85 W3        30.04S
Augusta-Bush   CLOUDY    43  39  86 CALM      29.99F
6HR MIN TEMP:  41; 6HR MAX TEMP:  49;

Augusta-Daniel CLOUDY    49  36  61 CALM      29.99F
Swainsboro     FAIR      45  45 100 CALM      30.01S
Vidalia        CLOUDY    48  41  76 CALM      30.02S
Eastman        FAIR      44  35  70 CALM      30.03F
Hazlehurst     FAIR      49  38  64 CALM      30.01S
Alma           PTCLDY    46  42  86 CALM      30.02S
6HR MIN TEMP:  41; 6HR MAX TEMP:  48;

Waycross       CLOUDY    46  39  76 W3        30.03S
Jesup          NOT AVBL
Baxley         FAIR      43  43 100 CALM      30.02S
Brunswick      CLOUDY    46  43  87 SW5       30.04R
Saint Simons   PTCLDY    49  46  90 W5        30.03S
6HR MIN TEMP:  47; 6HR MAX TEMP:  55;


$$

SCZ027-028-034-036>038-045-046-048>050-GAZ119-141-150700-
...Lake and Supplemental Coastal Observations...

STATION/POSITION TIME  TEMP    WIND        PRES    WAVE   SWELL
                       AIR SEA DIR/SP/G            HT/PER HT/PER/DIR
                 (UTC) (F)     (DEG/KT/KT) (MB)    (FT/S) (FT/S/D)
Winyah Bay       0545   48     300/  1     1016.0S
Lake Murray      0550   52     250/  9/ 12 1013.9F
ACE Basin NERRS  0545   48        CALM     1016.0S
Fort Pulaski     0600   52 53  270/  5/  6 1016.6
Sapelo Island    0600   49     210/  1     1017.0

$$

ANZ835-935-AMZ111-154-330-350-352-354-370-450-454-472-150700-
...C-MAN and Buoy Observations...

STATION/POSITION TIME  TEMP    WIND        PRES    WAVE   SWELL
                       AIR SEA DIR/SP/G            HT/PER HT/PER/DIR
                 (UTC) (F)     (DEG/KT/KT) (MB)    (FT/S) (FT/S/D)
Buoy 41004       0610   64 72  260/ 16/ 19 1015.2
Buoy 41008       0550   58 58  220/  8/  8 1016.5F   1/ 4   2/120/ 4
Folly Beach CMAN 0600   53     240/  5/  8 1016.4F
Capers Nearshore 0608   52 55  250/ 10/ 14 1015.5F


STATION/POSITION TIME  TEMP    WIND        PRES    WAVE   SWELL
                       AIR SEA DIR/SP/G            HT/PER HT/PER/DIR
                 (UTC) (F)     (DEG/KT/KT) (MB)    (FT/S) (FT/S/D)
5E St. Marys GA  0530      62                N/A     1/10
Frying Pan Buoy  0610   60 66  280/ 12/ 17 1015.5
Buoy 41025       0610   58 74   20/  8/ 12 1015.2
Cape Lookout NC  0600           10/  9/ 12 1015.5F
Buoy 41002       0550   70 74  250/ 17/ 21 1015.8S   8/ 8   5/260/ 8
Buoy 41010       NOT AVBL
St Augustine FL  0600   59 63  220/  5/  6 1017.6F


$$




USA.gov is the U.S. government's official web portal to all federal, state and local government web resources and services.